Weather History for Laramie, WY

Change the Weather History Date:

Friday, November 16, 2012

  Actual Average Record
Temperature  
Mean Temperature 38 °F 29 °F  
Max Temperature 56 °F 41 °F 65 °F (1999)
Min Temperature 20 °F 17 °F -14 °F (1987)
Degree Days  
Heating Degree Days 27 36  
Month to date heating degree days 444 520  
Since 1 July heating degree days 1509 1763  
Cooling Degree Days 0 0  
Month to date cooling degree days 0 0  
Year to date cooling degree days 211 67  
Moisture  
Dew Point 18 °F    
Average Humidity 55    
Maximum Humidity 92    
Minimum Humidity 18    
Precipitation  
Precipitation 0.00 in 0.02 in 0.25 in (1958)
Month to date precipitation 0.16 0.32  
Year to date precipitation 6.06 10.38  
Sea Level Pressure  
Sea Level Pressure 30.11 in    
Wind  
Wind Speed 11 mph (SSW)    
Max Wind Speed 29 mph    
Max Gust Speed 33 mph    
Visibility 10 miles    
Events      
T = Trace of Precipitation, MM = Missing Value Source: NWS Daily Summary

Daily Weather History Graph

Daily Weather History Graph

Search for Another Location

Airport:

Trip Planner

Search our weather history database for the weather conditions in past years. The results will help you decide how hot, cold, wet, or windy it might be!

Date:

Astronomy

Nov. 16, 2012 Rise Set
Actual Time 6:52 AM MST 4:41 PM MST
Civil Twilight 6:22 AM MST 5:11 PM MST
Nautical Twilight 5:49 AM MST 5:45 PM MST
Astronomical Twilight 5:16 AM MST 6:17 PM MST
Moon 9:50 AM MST (11/16) 7:44 PM MST (11/16)
Length of Visible Light 10h 48m
Length of Day
9h 49m
Waxing Crescent, 12% of the Moon is Illuminated
Nov 16
Waxing Crescent
Nov 20
First Quarter
Nov 28
Full
Dec 6
Last Quarter
Dec 13
New

Hourly Weather History & Observations

Time (MST) Temp. Windchill Dew Point Humidity Pressure Visibility Wind Dir Wind Speed Gust Speed Precip Events Conditions
12:53 AM 21.9 °F 11.0 °F 19.0 °F 89% 30.24 in 10.0 mi South 10.4 mph - N/A   Clear
1:53 AM 24.1 °F 13.1 °F 19.9 °F 84% 30.21 in 10.0 mi South 11.5 mph - N/A   Clear
2:53 AM 21.0 °F 13.4 °F 18.0 °F 88% 30.23 in 10.0 mi South 5.8 mph - N/A   Clear
3:53 AM 19.9 °F 11.1 °F 16.0 °F 85% 30.22 in 10.0 mi SSE 6.9 mph - N/A   Clear
5:53 AM 26.1 °F 20.5 °F 14.0 °F 60% 30.26 in 10.0 mi SSE 4.6 mph - N/A   Clear
6:53 AM 30.9 °F 27.5 °F 15.1 °F 52% 30.24 in 10.0 mi Variable 3.5 mph - N/A   Clear
7:53 AM 32.0 °F 24.8 °F 19.0 °F 59% 30.24 in 10.0 mi South 8.1 mph - N/A   Clear
8:53 AM 39.0 °F 34.8 °F 21.9 °F 50% 30.21 in 10.0 mi SE 5.8 mph - N/A   Clear
9:53 AM 46.9 °F - 16.0 °F 29% 30.16 in 10.0 mi SSW 12.7 mph - N/A   Clear
10:53 AM 51.1 °F - 14.0 °F 23% 30.11 in 10.0 mi SSW 11.5 mph - N/A   Clear
11:53 AM 53.1 °F - 12.0 °F 20% 30.08 in 10.0 mi WSW 4.6 mph - N/A   Clear
12:53 PM 55.0 °F - 12.9 °F 19% 30.03 in 10.0 mi SW 15.0 mph - N/A   Clear
1:53 PM 54.0 °F - 12.9 °F 20% 30.02 in 10.0 mi WSW 17.3 mph - N/A   Partly Cloudy
2:53 PM 52.0 °F - 15.1 °F 23% 30.04 in 10.0 mi WSW 12.7 mph - N/A   Overcast
3:53 PM 52.0 °F - 15.1 °F 23% 30.05 in 10.0 mi SW 18.4 mph 23.0 mph N/A   Overcast
4:53 PM 45.0 °F 38.9 °F 14.0 °F 29% 30.07 in 10.0 mi SSW 12.7 mph - N/A   Overcast
5:53 PM 41.0 °F 33.1 °F 21.0 °F 45% 30.07 in 10.0 mi SSW 15.0 mph - N/A   Mostly Cloudy
6:53 PM 43.0 °F 35.1 °F 21.9 °F 43% 30.04 in 10.0 mi SW 17.3 mph - N/A   Partly Cloudy
7:53 PM 41.0 °F 33.5 °F 19.0 °F 41% 30.04 in 10.0 mi SSW 13.8 mph - N/A   Clear
8:53 PM 37.9 °F 29.6 °F 21.9 °F 53% 30.02 in 10.0 mi SW 13.8 mph - N/A   Clear
9:53 PM 39.0 °F 34.0 °F 26.1 °F 60% 29.98 in 10.0 mi West 6.9 mph - N/A   Scattered Clouds
10:53 PM 34.0 °F 28.8 °F 25.0 °F 70% 29.98 in 10.0 mi Variable 5.8 mph - N/A   Clear
11:53 PM 37.9 °F 27.3 °F 30.9 °F 76% 29.95 in 10.0 mi WSW 21.9 mph 28.8 mph N/A   Overcast